Overview Statistics Trail Chart Weather Telemetry Raw packets
 

This is the latest recevied weather packets stored in our database for station/object W5GMO. If no packets are shown the sender has not sent any weather packets the latest 10 day(s).

<< 1 2 3 4 5 >>
Time Temp. Humidity Pressure Rain* Wind** Luminosity Snow
1788643369 28.33° C 1% 1010.7 hPa 0 mm - 77 W/m² -
1788643069 28.33° C 1% 1010.4 hPa 0 mm - 91 W/m² -
1788642764 27.78° C 1% 1010.4 hPa 0 mm - 219 W/m² -
1788642461 28.33° C 1% 1010.3 hPa 0 mm - 113 W/m² -
1788642155 28.33° C 1% 1010.5 hPa 0 mm - 98 W/m² -
1788641853 28.33° C 1% 1010.5 hPa 0 mm - 88 W/m² -
1788641548 28.33° C 1% 1010.6 hPa 0 mm - 111 W/m² -
1788641248 28.89° C 1% 1010.5 hPa 0 mm - 122 W/m² -
1788640944 28.89° C 1% 1010.6 hPa 0 mm - 123 W/m² -
1788640643 29.44° C 1% 1010.2 hPa 0 mm - 134 W/m² -
1788640339 29.44° C 1% 1010.5 hPa 0 mm - 168 W/m² -
1788640034 29.44° C 1% 1010.5 hPa 0 mm - 292 W/m² -
1788639730 29.44° C 1% 1010.5 hPa 0 mm - 246 W/m² -
1788639425 29.44° C 1% 1010.6 hPa 0 mm - 440 W/m² -
1788639124 29.44° C 1% 1010.5 hPa 0 mm - 202 W/m² -
1788638820 29.44° C 1% 1010.6 hPa 0 mm - 195 W/m² -
1788638516 29.44° C 1% 1010.7 hPa 0 mm - 225 W/m² -
1788638214 29.44° C 1% 1010.8 hPa 0 mm - 500 W/m² -
1788637909 30° C 1% 1010.7 hPa 0 mm - 599 W/m² -
1788637604 30° C 1% 1010.7 hPa 0 mm - 317 W/m² -
1788637303 30° C 1% 1010.7 hPa 0 mm - 464 W/m² -
1788636998 30.56° C 1% 1010.8 hPa 0 mm - 353 W/m² -
1788636693 30.56° C 1% 1010.8 hPa 0 mm - 678 W/m² -
1788636389 30° C 1% 1010.6 hPa 0 mm - 680 W/m² -
1788636085 28.89° C 1% 1010.7 hPa 0 mm - 676 W/m² -

* Rain latest hour (hover to see other rain measurements)
** Current wind speed in m/s (hover to see current wind gust speed)